Location: NJAA Observatory
(40.6819°N, 74.8979°W)
Time: 18:32:31
(UTC-04:00)

Daily predictions for brighter satellites

Satellite Brightness Start Highest point End
(mag) Time Altitude Azimuth Time Altitude Azimuth Time Altitude Azimuth
BREEZE-M DEB (TANK) 4.1 20:40:49 10° WNW 20:44:36 52° SSW 20:57:23 10° SE
ATLAS 3B R/B 4.5 20:45:11 10° SE 20:48:12 13° ESE 20:51:10 10° E
APEX 4.3 20:47:24 10° N 20:51:13 41° ENE 20:56:05 10° SE
Resurs 01 Rocket 4.3 20:48:34 10° SW 20:51:42 19° W 20:54:51 10° NW
Cosmos 2228 3.7 20:49:06 10° N 20:53:15 38° ENE 20:57:22 10° SSE
Lacrosse 5 rocket 2.4 20:51:09 10° WSW 20:54:52 48° NW 20:58:48 10° NE
Cosmos 2098 Rocket 3.9 20:51:39 10° NNW 20:54:53 43° W 20:58:49 10° SSW
Cosmos 1743 2.8 20:51:03 10° N 20:54:55 86° W 20:58:44 10° S
Cosmos 1025 Rocket 3.5 20:50:58 10° SSW 20:55:21 69° W 20:59:43 10° N
Meteor 1-23 Rocket 4.3 20:50:24 10° S 20:55:58 64° E 21:01:36 10° NNE
Cosmos 2251 Rocket 3.8 20:51:56 10° SSW 20:57:14 76° WNW 21:02:37 10° NNE
Cosmos 1892 Rocket 3.7 20:59:04 10° S 21:03:30 83° W 21:08:00 10° N
ERS-1 Rocket 3.0 20:58:48 10° SSE 21:03:48 80° ENE 21:08:51 10° N
Cosmos 1603 4.2 20:59:31 10° S 21:04:35 36° ESE 21:09:40 10° NE
USA 234 4.0 20:59:36 10° E 21:05:47 45° NNE 21:11:59 10° NW
Envisat 3.5 21:02:56 10° SE 21:07:45 45° ENE 21:12:34 10° N
Meteor 2-9 Rocket 4.3 21:04:03 10° N 21:09:43 69° E 21:15:30 10° SSE
SJ-11-01 4.3 21:05:16 10° SSE 21:09:55 82° ENE 21:14:37 10° N
Cosmos 1110 Rocket 4.4 21:04:42 10° NNW 21:09:58 67° WSW 21:15:10 10° S
USA 186 3.6 21:11:05 10° SSW 21:13:33 24° W 21:15:53 10° NW
Abrixas rocket 2.3 21:12:12 10° WNW 21:15:38 84° SSW 21:18:26 15° SE
Meteor 2-4 Rocket 3.9 21:09:49 10° S 21:15:40 86° W 21:21:39 10° N
Okean 2 3.5 21:13:47 10° S 21:17:57 81° W 21:22:10 10° N
Cosmos 2297 4.3 21:14:19 10° NNW 21:19:55 58° WSW 21:25:31 10° S
BREEZE M DEB (TANK) 2.3 21:17:05 10° WNW 21:20:03 43° N 21:21:56 10° E
Cosmos 1513 Rocket 4.5 21:15:56 10° N 21:22:15 75° E 21:28:25 10° SSE
Tsikada Rocket 4.2 21:18:07 10° SSE 21:24:20 55° E 21:30:33 10° NNE
Timation 1 Rocket 4.4 21:18:57 10° NNW 21:24:59 71° ENE 21:30:11 14° SSE
Cosmos 1943 4.3 21:25:39 13° SSE 21:29:21 24° E 21:33:48 10° NE
YAOGAN 6 3.8 21:27:50 16° ESE 21:29:58 28° ENE 21:33:13 10° NNE
PSLV R/B 3.6 21:29:51 10° SW 21:33:17 48° SSE 21:36:28 12° E
ISS -2.4 21:30:29 10° SSW 21:33:19 27° SE 21:36:09 10° ENE
Cosmos 2285 Rocket 4.4 21:28:40 10° NNW 21:34:54 62° WSW 21:41:08 10° S
Cosmos 1943 Rocket 4.3 21:35:36 10° NNE 21:37:51 12° NE 21:40:06 10° ENE
CZ-2C R/B 3.4 21:37:57 10° SW 21:39:24 15° W 21:40:53 10° WNW
Cosmos 1461 2.8 21:35:08 10° NNW 21:39:27 87° ENE 21:42:09 21° SSE
MetOp-A 4.3 21:35:19 16° SSE 21:39:37 61° ENE 21:44:55 10° N
SPOT 5 2.6 21:36:20 15° SSE 21:40:01 80° ENE 21:44:23 10° N
Cosmos 2058 Rocket 4.4 21:37:11 10° NNW 21:41:14 38° W 21:45:16 10° SSW
Cosmos 1602 Rocket 3.7 21:42:06 10° S 21:46:34 79° W 21:51:04 10° N
CZ-4 SHROUD 3.6 21:46:45 18° S 21:48:54 62° W 21:52:03 10° NNW
H-2A R/B 3.5 21:48:11 15° E 21:50:37 21° ENE 21:54:18 10° NNE
Cosmos 1825 Rocket 4.2 21:49:41 23° SE 21:51:45 36° E 21:55:50 10° NNE
GRACE-1 4.4 21:50:25 10° N 21:53:15 58° W 21:55:07 19° SSW
GRACE-2 4.4 21:50:52 10° N 21:53:42 58° W 21:55:33 19° SSW
Aureole 2 Rocket 4.3 21:50:26 10° SW 21:54:04 35° WNW 21:57:25 10° N
Cosmos 1812 Rocket 3.5 21:53:09 10° N 21:57:33 89° W 22:00:27 21° S
SPOT 1/Viking Rocket 3.6 21:55:43 23° SSE 21:58:57 65° ENE 22:04:04 10° N
Cosmos 1816 Rocket 4.5 21:54:51 10° S 22:01:13 83° E 22:07:35 10° N
Geosat 4.5 21:57:09 10° NE 22:01:51 38° ESE 22:04:15 24° SSE
Terra 3.3 22:00:40 19° E 22:02:33 24° ENE 22:06:19 10° NNE
Cosmos 1634 Rocket 4.1 21:59:19 10° N 22:05:23 57° E 22:08:55 25° SSE
USA 245 4.2 22:05:43 22° SSE 22:09:48 83° ENE 22:15:08 10° N
H-2A R/B 4.2 22:06:43 10° SSW 22:10:03 22° W 22:13:27 10° NW
SeaSat 1 2.9 22:07:21 20° S 22:10:34 54° WSW 22:15:25 10° NW
Atlas Centaur 2 3.5 22:03:58 10° SW 22:11:04 38° S 22:15:35 23° ESE
ARGOS 3.2 22:10:34 27° SSE 22:13:34 71° ENE 22:18:58 10° N
Cosmos 2369 Rocket 2.5 22:08:14 10° NNW 22:13:47 52° ENE 22:16:29 29° SE
CZ-4C R/B 3.9 22:12:56 34° SE 22:14:22 49° ENE 22:18:21 10° N
DEBRIS 3.4 22:11:52 10° WNW 22:15:17 28° SW 22:15:34 27° SW
CZ-4B R/B 3.7 22:12:40 10° N 22:17:44 75° WNW 22:22:53 10° SSW
NOAA 11 4.1 22:22:44 31° SSE 22:25:26 82° ENE 22:30:53 10° NNW
COSMOS 2455 3.1 22:21:28 10° SW 22:27:27 72° WNW 22:33:30 10° NNE
Cosmos 2279 Rocket 4.3 22:23:54 10° N 22:30:00 51° ENE 22:32:31 33° SE
Cosmos 1953 3.8 22:31:05 10° NNE 22:34:17 23° ENE 22:34:19 23° ENE
Cosmos 1953 Rocket 3.4 22:35:33 42° S 22:37:01 86° E 22:41:29 10° N
Cosmos 2263 4.4 22:31:56 10° NNW 22:37:30 59° ENE 22:39:31 37° SE
Meteor 1-22 Rocket 4.2 22:32:05 10° N 22:37:41 80° E 22:40:01 38° SSE
ATLAS 3B R/B 2.9 22:30:06 10° SSW 22:37:44 70° ESE 22:45:15 10° NE
IGS 5A 3.7 22:43:55 48° E 22:44:24 51° ENE 22:48:27 10° N
USA 234 3.5 22:45:49 34° SSE 22:48:38 59° SW 22:55:07 10° NW
Cosmos 407 Rocket 3.4 22:49:25 35° SSW 22:51:45 87° ESE 22:57:00 10° NNE
Cosmos 1346 Rocket 3.3 22:56:00 42° SW 22:56:56 54° WNW 23:00:47 10° N
Cosmos-2242 3.2 22:53:46 10° N 22:58:07 56° E 22:58:21 55° E
SL-23 DEB 4.1 22:52:54 10° SW 23:01:53 15° ENE 23:02:28 10° ENE
SL-24 R/B 4.4 22:54:26 10° N 22:59:21 88° E 23:00:48 49° S
Lacrosse 4 Rocket 1.3 22:59:12 66° SW 22:59:43 82° WNW 23:03:49 10° NNE
ISS -1.7 23:06:39 10° W 23:09:41 35° NNW 23:12:43 10° NE
BREEZE-M DEB (TANK) 4.5 23:08:00 10° WNW 23:09:51 19° NNW 23:09:51 19° NNW
Cosmos 1954 Rocket 3.9 23:09:47 58° S 23:10:44 74° ESE 23:16:03 10° NNE
Cosmos 1758 Rocket 4.3 23:10:06 36° SW 23:11:24 48° W 23:15:39 10° N
USA 238 DEB 3.9 23:10:59 44° SSE 23:12:27 51° ESE 23:19:14 10° NE
USA 238 3.9 23:11:09 44° SSE 23:12:33 50° ESE 23:19:20 10° NE
Cosmos 1943 4.1 23:07:36 10° SW 23:13:03 47° WNW 23:18:34 10° NNE
Cosmos 1842 3.3 23:13:33 76° NW 23:13:33 76° NW 23:17:19 10° N
Meteor 1-21 4.4 23:11:19 35° SSW 23:13:47 69° WNW 23:19:36 10° N
CARTOSAT-1 3.8 23:14:29 56° SW 23:14:52 58° W 23:19:10 10° NNW
Cosmos 1758 3.5 23:15:14 10° N 23:19:02 70° NE 23:19:02 70° NE
Cosmos 1943 Rocket 2.1 23:17:01 10° NNW 23:22:35 75° ENE 23:23:31 60° SE
Spot 4 3.8 23:22:16 62° SW 23:22:47 69° WSW 23:27:34 10° NNW
Cosmos 1741 Rocket 4.3 23:27:52 49° E 23:27:52 49° E 23:32:42 10° NNE
Meteor 2-5 Rocket 4.4 23:28:42 39° E 23:28:57 39° E 23:34:17 10° NNE
H-2A R/B 2.6 23:28:49 41° SW 23:29:41 45° W 23:34:31 10° NNW
Cosmos 1092 Rocket 4.0 23:33:02 55° SE 23:34:08 65° E 23:40:22 10° NNE
Cosmos 1656 Rocket 4.1 23:34:13 10° NNW 23:39:45 50° ENE 23:40:41 46° E
Terra 2.8 23:39:33 35° WSW 23:40:05 36° W 23:44:29 10° NNW
Cosmos 1842 Rocket 3.7 23:37:36 10° N 23:41:34 72° N 23:41:34 72° N
Cosmos 1570 Rocket 3.9 23:37:49 10° NNW 23:43:12 79° ENE 23:43:34 75° ESE
Cosmos 1850 Rocket 3.9 23:46:11 77° ESE 23:46:11 77° ESE 23:51:24 10° NNE
Nadezhda 4 Rocket 4.0 23:45:01 51° SSW 23:46:40 76° W 23:53:02 10° N
CZ-4C R/B 3.6 23:54:53 25° E 23:54:53 25° E 23:58:07 10° NE
